Location: B?tr�na
(45.7833°N, 22.5833°E)
Time: 14:38:30
(UTC+00:00)

Daily predictions for brighter satellites

Satellite Brightness Start Highest point End
(mag) Time Altitude Azimuth Time Altitude Azimuth Time Altitude Azimuth
Cosmos 2285 Rocket 4.1 18:52:32 10° S 18:58:50 61° ESE 19:05:09 10° NNE
Cosmos 1844 Rocket 4.0 18:55:17 10° N 19:00:09 28° NE 19:05:00 10° ESE
Meteor 2-10 4.0 18:55:10 10° N 19:00:14 89° W 19:05:23 10° S
Cosmos 1378 Rocket 3.5 18:58:39 10° S 19:02:59 84° E 19:07:23 10° N
Cosmos 220 Rocket 3.9 18:59:52 10° SSW 19:04:10 78° ESE 19:08:27 10° NNE
Cosmos 1726 2.0 19:03:50 10° N 19:07:29 77° E 19:11:06 10° SSE
Cosmos 1758 3.6 19:04:30 10° N 19:08:23 51° ENE 19:12:14 10° SSE
OBJECT-B 3.6 19:06:35 10° SW 19:08:45 17° W 19:10:56 10° NW
Okean 2 3.4 19:05:29 10° S 19:09:34 85° E 19:13:40 10° N
Cosmos 292 Rocket 3.9 19:06:13 10° S 19:10:57 58° ESE 19:15:43 10° NNE
Cosmos 2263 Rocket 2.6 19:07:45 10° NNW 19:13:23 63° WSW 19:18:59 10° S
Lacrosse 5 rocket 2.8 19:15:31 10° SSE 19:17:30 14° SE 19:19:26 10° E
SPOT 5 3.9 19:14:04 10° SE 19:18:39 34° ENE 19:23:05 10° N
Cosmos 1452 Rocket 3.7 19:15:41 10° S 19:20:48 54° ESE 19:25:57 10° NNE
Cosmos 1707 2.7 19:20:22 10° S 19:24:13 84° E 19:28:08 10° N
In-Cosmos 22 4.2 19:20:20 10° S 19:25:30 58° E 19:30:42 10° NNE
NOSS 3-2 (A) 4.4 19:23:21 10° WSW 19:28:54 53° NW 19:35:20 10° NNE
NOSS 3-2 (C) 3.5 19:23:37 10° SW 19:29:14 81° NW 19:35:46 10° NE
SPOT 1/Viking Rocket 3.5 19:24:42 10° SSE 19:29:51 85° ENE 19:35:01 10° NNW
Cosmos 2333 Rocket 3.7 19:27:04 12° SE 19:30:25 19° E 19:34:15 10° ENE
Cosmos 1850 Rocket 4.3 19:25:44 10° NNW 19:31:01 60° ENE 19:35:35 13° SE
Terra 3.0 19:27:15 11° SE 19:31:07 30° ENE 19:35:15 10° N
Resurs 01 Rocket 2.5 19:27:32 10° S 19:31:48 48° W 19:36:05 10° NNW
Lacrosse 5 2.1 19:27:32 10° NW 19:32:34 64° SW 19:36:54 14° SSE
MetOp-B 4.3 19:29:10 10° S 19:34:30 75° WSW 19:39:53 10° NNW
Cosmos 1025 Rocket 4.0 19:33:10 13° SE 19:36:20 30° E 19:40:08 10° NNE
Cosmos 1953 2.8 19:32:27 10° N 19:36:24 46° ENE 19:39:30 15° SSE
ATLAS 3B R/B 3.6 19:31:23 10° SSE 19:36:28 25° ESE 19:41:40 10° ENE
CARTOSAT-1 3.7 19:33:51 13° SSE 19:37:39 64° ENE 19:41:56 10° N
USA 245 4.0 19:34:24 11° SSE 19:38:56 89° WSW 19:44:35 10° NNW
Geosat 4.1 19:34:56 13° SE 19:39:21 73° ENE 19:44:23 10° NNW
Spot 2 Rocket 3.5 19:37:40 12° SSE 19:42:20 79° ENE 19:47:26 10° NNW
Cosmos 1844 4.3 19:38:35 10° NNW 19:43:56 45° ENE 19:48:25 14° SE
Cosmos 1975 Rocket 3.0 19:41:31 10° S 19:45:49 70° E 19:50:12 10° NNE
Cosmos 2219 Rocket 3.5 19:43:00 15° SE 19:45:52 21° E 19:49:59 10° NE
Cosmos 1331 Rocket 4.5 19:42:07 10° S 19:46:59 41° ESE 19:51:56 10° NE
FALCON 9 DEB 3.3 19:44:15 10° SW 19:47:33 45° SE 19:50:50 10° ENE
ERS-1 Rocket 3.1 19:44:39 15° SSE 19:48:45 62° ENE 19:53:44 10° N
Cosmos 1461 3.2 19:47:32 10° NNW 19:51:45 57° NE 19:54:37 18° SE
Aureole 1 Rocket 4.2 19:46:16 10° NNW 19:51:56 64° ENE 19:57:44 16° SE
Cosmos 1626 2.6 19:52:45 19° SSE 19:54:59 41° E 19:58:28 10° NNE
USA 215 3.8 19:53:24 10° ENE 19:59:14 33° SE 20:05:01 10° SSW
SL-8 R/B 3.8 19:54:42 10° WNW 19:59:32 81° NNE 20:04:02 12° ESE
Cosmos 1741 Rocket 4.1 19:57:50 10° NNW 20:03:07 79° WSW 20:07:06 18° SSE
Cosmos 2100 Rocket 4.1 19:58:16 10° N 20:04:42 89° ESE 20:10:01 15° S
KORONAS-FOTON 3.8 20:01:30 11° SSW 20:05:05 79° W 20:08:54 10° N
SL-16 R/B 3.0 20:00:03 10° SW 20:05:35 55° WNW 20:11:11 10° NNE
ATLAS CENTAUR R/B 2.7 20:02:58 10° NNW 20:06:57 35° NE 20:10:17 15° ESE
Cosmos 2360 Rocket 2.1 20:01:29 10° SSW 20:07:07 76° ESE 20:12:47 10° NNE
Cosmos 2322 Rocket 2.6 20:02:45 10° SW 20:08:24 66° WNW 20:14:07 10° NNE
ARIANE 5 R/B 2.9 20:06:03 16° S 20:09:32 63° WSW 20:14:01 10° NNW
Meteor 1-16 Rocket 4.3 20:09:50 10° NNW 20:15:19 70° W 20:19:31 17° S
CENTAUR R/B 4.0 20:11:02 10° WSW 20:16:50 42° NW 20:23:44 10° NNE
COSMOS 2428 3.5 20:19:05 22° SSE 20:21:49 33° ESE 20:26:53 10° NE
Cosmos 2173 Rocket 4.2 20:18:01 10° NNW 20:24:22 71° W 20:29:32 16° S
Cosmos 2322 3.9 20:20:49 18° S 20:24:45 50° ESE 20:30:12 10° NE
Cosmos 1674 3.7 20:22:30 10° SSW 20:26:02 42° WNW 20:29:37 10° N
Cosmos 2016 Rocket 3.9 20:21:07 10° N 20:27:16 84° E 20:31:26 22° S
Cosmos 389 Rocket 4.4 20:26:20 10° NNE 20:28:42 17° ENE 20:29:43 15° E
Cosmos 1544 Rocket 3.7 20:24:15 10° NNW 20:28:43 75° W 20:31:24 24° S
H-2A R/B 3.3 20:26:39 10° NNE 20:30:45 71° ESE 20:32:58 26° S
Cosmos 2278 Rocket 3.7 20:27:29 10° N 20:32:15 27° NE 20:36:37 12° ESE
USA 267 4.1 20:27:13 10° E 20:33:24 47° NNE 20:39:38 10° NW
Cosmos 1455 Rocket 4.1 20:29:27 10° NNW 20:33:38 40° W 20:36:55 15° SSW
Cosmos 1300 2.8 20:30:26 10° N 20:34:13 61° E 20:35:40 34° SE
CZ-4B DEB 4.3 20:33:13 37° S 20:34:20 73° WSW 20:37:31 10° NNW
Cosmos 1725 Rocket 3.9 20:32:25 10° N 20:38:38 88° E 20:42:36 24° S
Cosmos 1110 Rocket 4.4 20:35:53 10° SSW 20:41:00 64° WNW 20:46:12 10° NNE
Cosmos 1844 Rocket 3.1 20:38:50 10° NW 20:44:22 55° WSW 20:47:39 24° S
Cosmos 1346 Rocket 3.8 20:43:49 28° ESE 20:44:38 30° E 20:48:10 10° NNE
BREEZE-M DEB (TANK) 3.3 20:42:08 10° W 20:44:56 71° NNW 20:52:09 10° ENE
Meteor 2-5 Rocket 3.7 20:42:18 24° S 20:45:38 72° E 20:51:14 10° NNE
Cosmos 968 Rocket 3.7 20:45:56 10° NNW 20:51:00 59° ENE 20:53:31 29° SE
Cosmos 1340 3.0 20:51:54 25° SSW 20:53:53 60° WNW 20:57:38 10° N
Lacrosse 5 rocket 1.1 20:52:28 10° SW 20:56:07 76° NW 20:59:43 10° NE
ATLAS CENTAUR R/B 4.3 20:55:10 19° ESE 20:56:29 20° E 21:02:53 10° ENE
SPOT 5 4.2 20:53:08 16° SSW 20:56:40 34° W 21:01:12 10° NNW
Cosmos 1900 4.4 20:52:31 10° NW 20:57:23 63° WSW 20:59:24 33° S
Cosmos 1508 4.5 20:57:23 63° SE 20:57:39 69° E 21:00:45 10° NNE
GEOS 3 Rocket 3.8 20:54:56 25° SE 20:58:10 72° NE 21:03:30 10° NW
Cosmos 1536 Rocket 3.8 20:58:18 25° SSW 21:00:50 66° W 21:05:18 10° N
Cosmos 405 3.5 20:57:48 10° NNW 21:01:09 48° W 21:02:06 36° SW
Cosmos 2333 4.4 20:57:58 10° SSW 21:03:44 72° WNW 21:09:28 10° NNE
DNEPR-1 R/B 3.4 21:00:32 10° NW 21:04:45 78° SW 21:06:16 40° SSE
Terra 3.0 21:06:08 20° SSW 21:08:47 34° W 21:13:07 10° NNW
Cosmos 2333 Rocket 2.4 21:09:00 14° SW 21:14:02 73° WNW 21:19:48 10° NNE
Lacrosse 5 4.1 21:13:08 10° W 21:14:38 11° WSW 21:16:06 10° SW
Cosmos 2228 3.0 21:18:48 10° N 21:23:14 86° W 21:24:34 45° S
FALCON 9 DEB 3.8 21:24:18 38° ENE 21:24:18 38° ENE 21:26:23 10° ENE
ATLAS 3B R/B 2.8 21:19:56 10° SW 21:26:29 73° NW 21:33:17 10° NE
Uosat 12 SS-18 rocket 4.0 21:25:47 33° SSW 21:27:47 85° SE 21:32:47 10° NE
Cosmos 2219 Rocket 2.5 21:24:38 15° SW 21:29:17 64° WNW 21:34:57 10° NNE
Meteor 1-24 Rocket 4.1 21:30:57 24° SW 21:34:06 56° WNW 21:39:29 10° N
Meteor 2-10 Rocket 3.6 21:30:52 10° NNW 21:35:55 63° W 21:37:47 37° SSW
Cosmos 1503 Rocket 4.2 21:31:24 10° NNW 21:36:46 65° ENE 21:39:01 35° SE
SL-16 R/B 3.8 21:38:29 17° ESE 21:39:25 18° E 21:43:08 10° ENE
SL-8 R/B 4.3 21:37:26 10° WNW 21:41:51 37° SW 21:41:58 37° SSW
USA 215 3.3 21:36:04 10° NE 21:42:38 80° NW 21:49:09 10° WSW
BREEZE-M DEB (TANK) 3.0 21:39:45 10° W 21:42:51 64° N 21:51:07 10° ENE
Cosmos 2237 Rocket 2.4 21:42:20 39° SSE 21:44:07 55° ESE 21:49:36 10° NE
FALCON 9 DEB 3.4 21:44:47 39° W 21:45:38 56° NNW 21:48:42 10° NE
ATLAS CENTAUR R/B 2.5 21:41:52 10° NW 21:45:49 33° WSW 21:46:25 32° SW
Cosmos 2058 Rocket 3.2 21:42:46 10° N 21:47:13 67° E 21:48:18 48° SE
FALCON 9 DEB 3.1 21:47:55 68° NW 21:47:58 68° NNW 21:51:04 10° NE
Iridium 2 3.8 21:48:10 56° SW 21:48:45 67° W 21:52:30 10° N
Cosmos 1867 3.5 21:44:52 10° NW 21:50:21 74° WSW 21:52:15 41° SSE
Cosmos 2360 Rocket 4.5 21:47:27 10° W 21:51:44 22° NW 21:56:03 10° N
Cosmos 1891 Rocket 4.4 21:47:06 10° N 21:53:17 89° E 21:55:58 37° S
Spot 4 4.1 21:52:23 40° SSW 21:53:49 57° W 21:58:33 10° NNW
Thor Agena Rocket 4.4 21:49:43 10° NNE 21:54:34 36° E 21:55:52 31° SE
FALCON 9 DEB 3.6 21:53:44 34° W 21:54:43 51° NNW 21:57:46 10° NE
Cosmos 1726 Rocket 3.8 21:53:04 10° NNW 21:57:28 59° W 21:58:33 45° SSW
GP-B 4.4 21:54:41 10° NNE 21:58:32 28° E 21:59:36 25° ESE
Centaur D AC-29 4.5 21:56:43 10° WSW 21:58:54 11° SW 21:59:44 11° SW
Meteor 1-21 Rocket 4.2 21:57:10 40° SSE 21:59:10 69° E 22:04:50 10° NNE
Cosmos 1513 Rocket 4.4 21:53:07 10° N 21:59:13 86° W 22:01:45 38° S
Cosmos 1455 2.3 21:58:26 10° NNW 22:02:14 61° W 22:02:38 57° SW
Cosmos 389 Rocket 3.8 22:00:24 10° NNW 22:03:23 28° W 22:03:30 28° W
NOSS 0 Rocket 3.9 22:01:25 29° SSW 22:04:48 84° WNW 22:11:05 10° NNE
COSMOS 2428 3.7 22:01:02 13° SW 22:05:57 43° NW 22:11:26 10° NNE
Meteor 1-4 Rocket 3.3 22:07:11 10° N 22:10:31 40° ENE 22:10:44 39° E
ALOS 2 2.7 22:11:48 50° SSW 22:12:41 62° W 22:17:03 10° NNW
Cosmos 1892 Rocket 4.1 22:12:19 38° SW 22:13:37 52° WNW 22:17:58 10° N
COBE Rocket 4.3 22:12:19 39° SSW 22:13:50 53° W 22:18:43 10° NNW
USA 267 3.2 22:12:27 28° SE 22:16:13 75° SW 22:22:47 10° NW
Cosmos 2278 Rocket 2.4 22:11:09 10° NNW 22:16:42 57° WSW 22:18:27 41° SSW
SJ 16-02 2.9 22:14:07 10° N 22:17:58 29° ENE 22:20:04 20° ESE
Nimbus 7 Rocket 4.4 22:18:33 10° NNE 22:24:38 89° ESE 22:27:13 37° SSW
Cosmos 1777 Rocket 4.1 22:22:50 10° NNW 22:28:09 75° ENE 22:30:09 39° SE
SL-4 R/B 1.7 22:30:03 70° ESE 22:30:03 70° ESE 22:33:31 10° ENE
Cosmos 1354 Rocket 4.4 22:27:26 10° NNW 22:32:36 51° WSW 22:33:59 41° SSW
Cosmos 1464 Rocket 4.4 22:27:34 10° NNW 22:33:44 53° W 22:36:22 33° SSW
Lacrosse 5 rocket 3.8 22:33:02 10° WNW 22:35:42 19° NNW 22:38:23 10° NNE
Cosmos 1184 Rocket 4.3 22:38:30 27° W 22:38:43 27° WNW 22:41:33 10° NNW
PSLV R/B 3.7 22:38:07 10° NNE 22:42:24 65° ESE 22:43:14 52° SSE
Cosmos 1634 Rocket 4.2 22:37:47 10° N 22:44:05 66° E 22:47:10 32° SSE
Cosmos 1626 Rocket 3.6 22:43:28 51° SW 22:44:28 72° W 22:48:56 10° N
Cosmos 1607 4.2 22:39:34 10° NW 22:45:47 55° WSW 22:47:53 38° S
Cosmos 1703 4.4 22:49:57 30° W 22:50:45 34° WNW 22:54:24 10° N
Cosmos 1602 Rocket 3.5 22:49:55 55° SSW 22:50:55 86° WNW 22:55:25 10° N
Aureole 3 3.4 22:49:10 10° N 22:52:46 68° E 22:53:35 52° SE
Cosmos 1441 Rocket 4.4 22:52:52 30° W 22:53:39 33° WNW 22:57:10 10° N
Cosmos 1758 Rocket 3.6 22:57:08 50° SSE 22:58:07 69° E 23:02:32 10° NNE
Helios 1A 4.3 22:56:23 23° ESE 22:58:17 34° ENE 23:02:05 10° N
Cosmos 1892 3.6 22:58:30 36° ESE 22:59:04 38° E 23:02:42 10° NNE
Cosmos 1328 4.5 22:59:39 38° WSW 23:00:16 41° WNW 23:03:59 10° N
USA 229 DEB 4.3 22:58:56 31° SSE 23:01:03 39° ESE 23:07:12 10° NE
USA 229 4.3 22:59:03 31° SSE 23:01:09 39° ESE 23:07:18 10° NE
Cosmos 1943 Rocket 2.3 22:55:43 10° NNW 23:01:14 68° ENE 23:04:20 26° SE
BREEZE-M DEB (TANK) 2.5 23:02:21 10° W 23:07:35 61° NNW 23:10:00 10° ENE
NOSS 3-1 (C) 3.2 23:09:26 41° S 23:11:17 66° ESE 23:17:25 10° NE
Resurs 1-4 Rocket 3.6 23:10:01 10° NE 23:14:27 26° E 23:17:02 18° SE
EO 1 Del DPAF 3.1 23:13:29 10° N 23:17:13 75° WNW 23:17:43 62° SW
Cosmos-2242 3.0 23:15:35 10° NNW 23:19:59 78° W 23:21:04 50° S
NOSS 2-3 (E) 3.6 23:19:28 51° S 23:20:13 60° ESE 23:24:52 10° NE
NOSS 3-1 (A) 3.7 23:18:53 34° SSE 23:20:34 45° ESE 23:26:21 10° NE
CZ-2D R/B 3.4 23:18:14 10° NE 23:22:45 29° E 23:25:17 20° SE
SL-16 R/B 2.3 23:20:20 34° SW 23:22:53 73° WNW 23:28:35 10° NNE
YAOGAN 11 4.2 23:23:43 39° SSE 23:25:20 77° ENE 23:29:49 10° N
Cosmos 1356 3.6 23:26:04 55° ESE 23:26:20 57° E 23:29:40 10° NNE
Cosmos 1812 Rocket 4.3 23:23:28 10° NNW 23:27:29 37° W 23:28:14 34° WSW
Cosmos 2237 Rocket 3.8 23:24:08 12° WSW 23:28:30 28° NW 23:33:17 10° N
Cosmos 405 Rocket 3.3 23:28:26 38° SE 23:29:08 43° E 23:32:39 10° NNE
NOSS 8 (F) 4.4 23:30:09 58° ESE 23:30:09 58° ESE 23:32:56 10° NE
ATLAS CENTAUR R/B 4.1 23:25:37 15° WSW 23:30:46 70° NNW 23:46:54 10° NE
SL-16 R/B 3.4 23:26:03 11° SE 23:31:41 47° ENE 23:37:34 10° N
ADEOS II 4.2 23:28:40 10° NE 23:32:08 18° E 23:35:34 10° SE
Cosmos 1825 2.8 23:33:53 38° SE 23:34:47 46° E 23:38:25 10° NNE
Cosmos 2142 Rocket 4.4 23:29:22 10° NNW 23:35:30 76° W 23:38:30 32° S
GP-B 4.4 23:31:57 10° NNW 23:35:48 29° W 23:37:02 25° WSW
Meteor 2-13 Rocket 4.5 23:33:51 32° S 23:36:53 80° E 23:43:05 10° N
Cosmos 468 Rocket 4.2 23:35:31 35° S 23:37:30 60° ESE 23:42:38 10° NNE
Cosmos 2369 Rocket 2.4 23:34:09 10° NNW 23:39:54 72° ENE 23:44:29 16° SE
MOZ.5/SAFIR/RUBIN 5/SL-8 3.8 23:38:41 32° SSE 23:40:54 79° ENE 23:45:41 10° N
Cosmos 2098 Rocket 4.4 23:39:01 22° SSE 23:42:22 44° E 23:46:59 10° NNE
EP 2 4.4 23:44:23 85° W 23:44:26 87° NW 23:47:28 10° NE
Cosmos 1656 Rocket 4.3 23:42:24 10° NNW 23:48:01 55° ENE 23:53:34 10° SE
Cosmos 2221 3.2 23:45:03 10° N 23:49:15 49° ENE 23:51:40 23° SE
NOSS 8 (H) 4.2 23:55:39 60° SSE 23:55:52 63° SE 23:58:48 10° NE
